COSMOS 1275 DEB, 14627

Orbit data source: Space-Track

COSMOS 1275 DEB, 14627 is space debris in LEO originally from a launch on Thu, 04 Jun 1981 UTC launched from the Plesetsk Missile And Space Complex (PKMTR). Debris objects in space refer to the collection of defunct objects orbiting the Earth. Examples of debris include non-operational satellites, rocket bodies, and fragments generated from explosions, collisions, or faulty payload assembly.

Loading next visibility...
Identifier
14627, 1981-053JQ
Orbit
LEO
Country
Flag of CISCIS
Related business
Manufacturer
Unknown
Mission
Spacecraft
Bus & Motor
Unknown
Mass
Unknown
Launch date (UTC)
1981-06-04 (45 years ago)
Launch vehicle
Unknown
Launch site
Plesetsk Missile And Space Complex (PKMTR)
Object type
Payload
Rocket body
Debris
Shape & HBR
Unknown shape, 0.1 m
Radar Cross Section
Small (<0.1 m²)

Expand to show TLE details & history
Last TLE update: 11 hours ago

TLE from 11 hours ago
0 COSMOS 1275 DEB
1 14627U 81053JQ  25351.56862168  .00001540  00000-0  90548-3 0  9994
2 14627  82.7813 191.0342 0033628 178.1484 238.1394 14.07183313135882
Epoch: 2025-12-17T13:38Z
TLE epoch observation values (Epoch: 2025-12-17T13:38:48.913Z)
Latitude
55.39306°
Longitude
-89.5853°
Altitude
891.151 km
Speed
7.405 km/s
True Right ascension
13h 26m 13s
True Declination
55° 14' 06"
Sunlit
Object was in daylight at epoch
Visualization orbit readout
Latitude
Unknown
Longitude
Unknown
Altitude
Unknown
Speed
Unknown
Apparent Right ascension
Unknown
Apparent Declination
Unknown
Sunlit
N/A
Visualization observer readout
Local Sidereal Time
23:07:38
Azimuth
Unknown
Elevation
Unknown
Doppler factor
Unknown
Orbital elements
Apogee altitude
890.498 km
Perigee altitude
841.776 km
Semi-major axis
7,244.274 km
Eccentricity
0.00336
Inclination
82.7813°
RAAN
191.0342°
Arg. of periapsis
178.1484°
True anomaly
237.81284°
Mean anomaly
238.1394°
Eccentric anomaly
237.97605°
Mean motion
3.52007 °/min
Orbital period
102.27 mins
BSTAR
0.00090548
Loading maneuver chart data...
Computing Atmospheric mass density...
Loading historical data...
Loading historical data...
Loading historical data...
Loading historical data...
Loading historical data...
Loading historical data...
Loading historical data...

Documentation

Showing up to 5 results
|